648  
SXUS52 KCHS 281727  
OSOCHS  
 
MARINE OBSERVATIONS  
NATIONAL WEATHER SERVICE CHARLESTON SC  
100 PM EDT FRI APR 28 2017  
   
..DOWNTOWN CHARLESTON AND HARBOR
 
 
 
CITY SKY/WX TMP DP RH WIND PRES REMARKS  
WATERFRONT PRK N/A 79 75 87 S10 30.08S  
   
..LAKE MOULTRIE
 
 
 
CITY SKY/WX TMP DP RH WIND PRES REMARKS  
PINOPOLIS N/A 84 72 65 VRB2 30.02F  
   
..LAKE AND SUPPLEMENTAL COASTAL OBSERVATIONS
 
 
 
STATION/POSITION TIME TEMP WIND PRES WAVE SWELL  
AIR SEA DIR/SP/G HT/PER HT/PER/DIR  
(UTC) (F) (DEG/KT/KT) (MB) (FT/S) (FT/S/D)  
FORT PULASKI 1700 77 75 160/ 6/ 9 1019.6  
SAPELO ISLAND 1700 85 170/ 7 1019.0  
WINYAH BAY 1645 80 220/ 13 1019.0S  
LAKE MURRAY 1720 79 CALM / 2 1017.3F  
ACE BASIN NERRS 1630 82 180/ 1 1019.0S  
 
   
..C-MAN AND BUOY OBSERVATIONS
 
 
 
STATION/POSITION TIME TEMP WIND PRES WAVE SWELL  
AIR SEA DIR/SP/G HT/PER HT/PER/DIR  
(UTC) (F) (DEG/KT/KT) (MB) (FT/S) (FT/S/D)  
BUOY 41004 1710 76 75 180/ 12/ 14 1019.6  
BUOY 41008 1650 74 73 180/ 8/ 10 1018.9S 3/ 9 3/110/ 9  
FOLLY BEACH CMAN 1700 77 200/ 5/ 6 1020.3R  
CAPERS NS BUOY 1708 74 75 210/ 6/ 8 1019.6S  
FRIPP NS BUOY 1708 74 74 220/ 10/ 12 1019.4R  
5E ST. MARYS GA 1630 75 N/A 3/ 5  
 
 
STATION/POSITION TIME TEMP WIND PRES WAVE SWELL  
AIR SEA DIR/SP/G HT/PER HT/PER/DIR  
(UTC) (F) (DEG/KT/KT) (MB) (FT/S) (FT/S/D)  
FRYING PAN BUOY 1710 75 73 200/ 10/ 12 1020.4  
BUOY 41025 1650 78 76 210/ 17/ 19 1020.1R 6/ 8 3/140/ 8  
CAPE LOOKOUT NC 1700 78 210/ 12/ 16 1019.9R  
BUOY 41002 1650 76 76 190/ 10/ 12 1022.6F 4/ 8 3/ 60/ 8  
BUOY 41010 1710 78 79 160/ 12/ 16 1020.6  
ST AUGUSTINE FL 1700 76 77 120/ 9/ 10 1020.1S  
 

 
 
 
CLICK HERE TO GO TO PREVIOUS BULLETINS.

The Nexlab SC Page
The Nexlab GA Page Main Text Page